Wind_Speed
11 12 10 9 12 12 11 11 9 7 7 12 10 14 14 10 7 5 4 6 9 11 12 13 12 11 11 11 9 9 7 6 6 8 10 9 11 10 10 8 10 14 16 20
11 10 12 12 13 13 12 13 11 12 8 15 13 11 14 12 8 7 6 5 6 8 9 11 13 12 11 10 9 7 6 5 6 9 9 10 9 10 11 12 15 18 22 25
10 9 12 10 13 16 14 15 13 15 14 11 12 13 8 7 7 8 7 6 4 6 8 10 11 11 9 8 8 7 6 8 8 10 11 10 9 11 14 18 21 23 28 32
12 10 11 9 11 17 17 17 17 17 17 13 11 10 11 12 11 11 8 5 5 6 7 8 9 8 8 10 10 10 9 11 11 12 13 11 11 14 19 23 23 31 32 35
14 14 11 9 10 13 17 19 17 23 21 14 14 11 8 10 12 10 13 12 13 16 15 13 13 13 13 15 14 12 13 12 12 14 12 13 15 18 22 25 30 32 39 42
15 15 13 12 9 10 18 15 19 19 18 15 13 11 2 3 7 11 15 20 18 18 18 18 18 14 14 17 17 16 14 14 13 11 13 16 19 22 24 29 31 41 42 45
19 15 13 13 13 10 14 16 15 17 18 16 16 15 4 8 6 11 7 9 9 15 17 21 21 20 19 19 16 15 12 12 14 15 15 20 23 26 30 32 35 43 45 49
21 16 17 13 12 13 20 18 19 20 18 16 17 15 8 13 10 9 11 15 16 15 16 18 21 17 15 13 12 13 12 14 15 16 20 24 28 31 34 36 41 41 44 45
20 20 20 15 19 16 21 23 22 23 20 18 17 17 13 12 17 14 11 13 17 12 11 10 10 12 12 10 12 15 14 16 18 21 25 29 30 34 33 34 38 41 46 50
19 21 21 17 17 18 20 19 21 19 20 18 19 21 20 17 19 18 18 16 16 15 13 11 10 12 14 13 14 17 19 21 23 27 30 32 32 31 31 35 39 43 47 54
19 24 24 21 19 22 23 22 21 20 22 24 22 17 20 20 17 19 17 18 18 19 16 15 14 15 16 17 20 21 24 27 30 32 34 34 34 34 32 36 40 44 52 55
18 24 27 23 24 27 27 27 27 26 26 25 27 20 19 20 21 18 18 16 18 19 20 19 19 19 20 24 26 26 30 32 33 35 36 37 39 37 37 38 47 49 57 60
20 22 25 26 28 27 30 27 21 22 30 30 28 11 14 17 20 22 24 24 22 23 21 22 24 26 28 29 30 31 32 33 35 37 34 37 37 39 46 52 54 56 60 65
23 24 25 26 22 24 28 28 29 24 22 21 19 17 19 22 22 25 28 26 24 20 22 26 28 29 30 33 35 35 33 33 35 36 38 39 47 43 48 47 51 56 59 62
26 23 21 22 26 29 30 30 28 28 23 23 17 23 18 22 24 25 27 28 25 22 22 23 25 30 33 34 33 33 33 33 34 38 38 43 42 44 47 51 53 57 59 60
29 24 23 24 24 25 26 28 27 30 27 25 27 24 25 26 28 26 26 26 24 25 26 26 28 32 32 33 34 33 34 37 39 42 43 45 46 47 51 54 56 58 59 60
28 25 25 26 26 25 26 23 24 26 26 28 30 25 28 27 27 26 27 27 27 27 27 29 32 33 34 34 34 36 39 42 44 47 48 49 49 51 53 56 58 58 59 57
29 28 27 28 27 29 21 21 25 29 30 32 32 31 30 31 29 28 28 28 28 30 30 31 32 32 33 34 37 40 43 45 47 48 49 49 51 53 56 58 59 57 53 59
32 29 31 31 28 27 23 20 26 28 27 29 31 31 32 31 30 28 28 29 29 29 30 32 32 33 35 38 40 43 45 47 49 49 50 51 54 56 58 57 55 57 55 61
34 33 35 31 29 28 24 24 27 30 29 25 27 27 28 26 27 28 30 30 30 30 31 32 33 36 38 41 43 46 48 49 49 50 52 53 55 57 55 54 56 58 60 62
33 33 34 29 30 30 29 29 30 33 22 27 26 26 25 27 29 29 30 30 30 30 31 33 36 39 41 43 45 47 47 48 50 52 53 54 55 55 55 56 59 61 62 63
34 33 31 30 31 30 28 31 31 28 29 27 27 27 28 28 28 28 28 28 29 30 33 36 39 41 43 44 46 47 48 50 52 53 54 55 56 57 58 60 61 63 65 67
35 32 33 34 28 30 29 29 30 29 27 25 24 24 24 24 23 24 26 27 30 33 36 38 40 42 44 46 48 50 51 52 53 55 55 57 57 58 60 62 63 65 68 72
29 31 35 31 29 29 28 29 28 28 27 25 23 21 20 22 23 26 28 30 33 36 38 40 42 45 47 50 51 52 53 54 55 56 58 58 58 62 64 65 66 69 72 76
33 31 33 32 27 25 25 26 27 26 24 22 22 22 23 25 28 30 32 35 37 39 41 44 46 48 50 52 53 54 55 56 57 59 58 60 63 65 65 67 69 72 76 80
35 31 32 29 25 29 27 27 24 24 26 25 25 26 28 30 32 35 37 38 41 44 45 47 50 52 53 54 54 56 56 58 58 58 61 65 67 67 67 68 70 74 77 80
Wind_Direction
322 297 277 286 259 272 271 251 257 232 259 209 171 149 141 137 139 131 128 143 151 155 150 150 164 173 182 182 173 178 178 200 224 239 246 245 252 253 248 254 264 267 273 281
304 283 273 254 242 233 236 252 273 259 234 192 185 197 171 161 165 172 159 194 194 171 167 167 171 174 177 171 174 182 197 222 238 242 244 245 247 235 242 257 267 277 289 297
290 276 281 263 233 223 209 232 246 247 212 206 207 209 208 193 193 188 192 191 218 230 195 186 184 174 177 188 203 215 221 230 227 244 243 252 248 242 261 274 278 287 298 300
278 278 272 256 233 228 209 218 229 213 226 222 221 216 223 213 213 194 181 175 227 217 223 224 214 215 215 224 228 236 238 228 235 234 244 257 262 262 273 273 286 288 291 297
255 275 259 249 232 240 215 229 228 227 228 226 240 260 232 240 215 205 197 203 227 226 221 232 239 232 233 244 243 248 250 245 239 232 248 266 273 275 284 282 290 299 301 298
248 265 247 236 250 235 215 218 230 231 235 246 267 277 276 242 224 210 221 244 222 217 225 226 230 238 247 252 255 262 261 266 248 239 271 285 292 296 302 296 288 303 299 299
245 249 226 224 248 231 221 209 226 237 240 255 255 278 264 245 300 210 240 232 224 217 221 225 226 236 242 252 251 253 256 255 263 271 280 288 298 301 301 300 293 299 296 297
236 231 226 222 224 226 208 222 237 239 242 251 263 278 277 244 252 257 264 262 248 243 233 230 228 232 236 244 250 267 267 268 271 287 289 297 299 303 303 300 297 295 297 300
233 233 227 222 222 219 220 223 231 244 254 257 273 272 261 277 261 263 260 269 265 241 213 220 220 231 241 254 266 273 271 280 291 299 298 299 299 300 299 294 296 298 299 298
227 225 224 211 227 214 206 218 234 250 264 264 266 285 271 265 261 259 267 269 262 242 237 237 240 245 253 260 272 283 292 291 294 294 299 302 301 299 296 292 289 296 290 291
229 226 224 219 216 211 215 229 237 249 260 268 277 267 273 266 253 258 259 256 254 252 249 251 254 262 269 277 281 287 291 295 298 301 302 301 301 301 294 287 282 278 285 289
238 234 231 233 217 208 218 226 236 245 252 260 271 284 263 265 269 265 261 252 247 259 263 267 275 277 281 281 286 294 296 296 297 296 295 295 299 297 286 273 279 281 281 283
239 233 233 234 234 227 230 236 251 266 259 257 265 286 277 254 261 268 269 266 260 260 264 267 270 279 282 283 286 284 287 290 292 296 295 296 295 286 284 288 287 289 289 292
227 234 237 241 247 246 247 244 245 260 253 264 271 277 269 270 266 264 268 275 282 271 259 257 262 269 273 276 277 280 285 287 290 291 292 289 296 288 292 294 294 293 295 296
228 235 238 237 234 242 247 248 251 257 258 260 269 267 266 263 272 280 277 276 279 276 271 264 260 260 265 272 280 283 284 285 289 295 295 292 288 289 296 296 296 296 297 296
236 239 239 242 247 249 248 247 250 250 257 266 266 262 264 267 277 284 290 287 277 269 269 270 268 269 275 279 283 288 296 301 301 301 299 297 298 299 300 298 298 298 299 299
238 247 242 243 251 257 249 254 264 267 267 268 269 275 275 277 279 282 279 276 273 272 272 272 274 278 283 289 295 300 300 301 303 304 303 303 303 301 301 301 301 300 301 303
230 238 242 245 250 256 266 266 266 270 272 274 275 274 273 276 280 277 273 272 270 268 271 274 279 285 291 297 300 300 303 305 305 304 303 303 302 301 302 302 303 302 304 301
237 237 242 248 258 264 267 284 277 271 278 280 278 276 273 269 270 272 274 270 270 272 279 285 290 294 297 297 301 304 304 304 303 303 303 302 302 303 304 303 301 300 296 292
238 238 243 248 260 269 273 281 284 276 286 286 277 271 270 266 263 264 265 268 275 283 286 288 292 294 299 305 305 304 303 303 303 302 301 302 303 303 302 300 299 299 298 297
246 243 246 252 262 266 273 286 286 279 294 273 271 264 259 257 259 264 268 275 280 283 287 292 296 302 303 303 302 301 302 302 301 301 300 301 301 302 300 300 301 300 298 299
245 247 250 252 259 267 278 285 287 279 274 272 269 265 260 261 265 268 273 275 280 288 294 298 301 301 300 300 302 302 302 301 300 300 302 304 303 302 302 302 301 300 300 301
245 247 253 252 263 267 278 289 283 276 272 267 265 265 265 267 271 274 278 288 292 296 297 298 299 300 303 303 304 303 303 302 302 304 304 304 303 303 304 302 301 300 301 302
250 249 249 251 257 269 277 282 278 269 267 264 263 267 271 275 280 285 288 292 293 294 297 299 302 303 303 304 304 304 304 304 305 305 305 304 305 305 303 302 301 302 303 305
248 248 245 249 260 266 266 267 268 265 262 264 268 271 274 280 283 286 287 289 293 297 300 301 301 303 305 306 305 305 305 305 305 305 305 306 306 304 302 301 303 305 308 309
251 252 249 255 258 262 265 265 262 265 269 269 273 277 280 283 284 285 289 294 298 299 301 302 303 305 305 305 305 305 305 304 304 305 307 306 305 304 303 304 305 306 307 308
Height
5746 5748 5746 5746 5748 5749 5750 5752 5753 5754 5755 5756 5755 5755 5755 5756 5758 5759 5759 5761 5763 5763 5764 5764 5766 5768 5770 5771 5773 5775 5775 5775 5775 5776 5778 5777 5778 5777 5777 5778 5779 5779 5779 5779
5746 5745 5744 5744 5747 5748 5749 5750 5752 5753 5753 5754 5754 5754 5754 5755 5757 5760 5760 5762 5763 5764 5765 5765 5766 5768 5770 5770 5772 5773 5773 5773 5773 5774 5774 5775 5774 5774 5774 5775 5775 5775 5774 5772
5744 5744 5744 5741 5745 5746 5747 5749 5750 5752 5752 5754 5754 5754 5756 5756 5756 5758 5760 5761 5762 5763 5764 5766 5766 5766 5767 5767 5768 5769 5770 5770 5771 5771 5771 5771 5771 5770 5770 5771 5770 5767 5766 5766
5743 5742 5742 5741 5743 5745 5745 5747 5749 5750 5751 5753 5754 5755 5756 5755 5756 5757 5759 5761 5762 5763 5764 5765 5765 5765 5764 5765 5766 5767 5768 5768 5768 5768 5767 5768 5767 5767 5766 5766 5764 5763 5761 5759
5741 5741 5741 5742 5742 5744 5745 5744 5747 5747 5750 5751 5752 5754 5753 5754 5755 5757 5758 5759 5760 5761 5762 5763 5763 5763 5762 5763 5763 5764 5764 5765 5765 5765 5765 5765 5765 5763 5763 5759 5757 5755 5752 5748
5737 5739 5739 5740 5741 5741 5742 5744 5745 5747 5749 5751 5751 5752 5752 5751 5752 5754 5756 5756 5757 5758 5760 5760 5760 5761 5761 5760 5760 5760 5760 5759 5762 5762 5761 5760 5758 5756 5754 5752 5749 5746 5743 5739
5734 5736 5737 5737 5740 5740 5742 5743 5744 5745 5745 5748 5748 5749 5752 5750 5750 5752 5753 5753 5754 5756 5757 5757 5757 5757 5757 5756 5757 5757 5757 5757 5757 5756 5755 5755 5751 5749 5747 5745 5742 5738 5735 5730
5731 5734 5734 5734 5736 5739 5739 5741 5743 5742 5744 5746 5746 5747 5749 5748 5748 5749 5751 5752 5752 5753 5753 5752 5752 5753 5753 5753 5753 5753 5753 5753 5753 5751 5750 5747 5744 5742 5740 5737 5734 5730 5726 5721
5727 5730 5730 5730 5732 5735 5736 5738 5741 5741 5742 5743 5744 5745 5746 5745 5745 5746 5748 5748 5749 5749 5749 5750 5750 5751 5750 5751 5751 5750 5748 5748 5746 5745 5742 5740 5738 5736 5733 5730 5726 5722 5718 5713
5723 5725 5727 5726 5730 5731 5733 5736 5738 5738 5739 5740 5741 5741 5742 5743 5740 5742 5744 5745 5745 5746 5747 5747 5747 5747 5747 5747 5746 5745 5744 5742 5739 5737 5735 5734 5732 5730 5726 5724 5721 5716 5710 5704
5718 5721 5725 5725 5726 5728 5731 5732 5734 5734 5735 5734 5736 5740 5738 5738 5739 5739 5741 5742 5742 5742 5742 5743 5743 5743 5743 5742 5741 5739 5736 5734 5731 5730 5728 5726 5723 5720 5718 5716 5712 5706 5700 5693
5714 5716 5719 5723 5722 5723 5725 5726 5728 5728 5730 5730 5730 5734 5734 5734 5734 5735 5736 5737 5738 5738 5738 5738 5738 5737 5737 5736 5733 5730 5729 5727 5725 5724 5721 5718 5714 5711 5709 5705 5701 5695 5688 5683
5710 5712 5714 5717 5720 5721 5721 5722 5724 5724 5724 5724 5725 5729 5729 5730 5730 5729 5730 5731 5732 5733 5734 5733 5732 5731 5729 5728 5726 5724 5722 5720 5718 5715 5713 5710 5707 5704 5698 5694 5690 5684 5677 5671
5704 5706 5709 5712 5718 5716 5715 5718 5718 5718 5719 5720 5721 5723 5725 5725 5724 5724 5724 5725 5726 5728 5728 5728 5727 5725 5723 5721 5719 5717 5716 5714 5711 5708 5706 5702 5698 5692 5687 5681 5676 5671 5665 5658
5698 5700 5704 5706 5707 5708 5710 5711 5712 5712 5713 5713 5717 5716 5719 5718 5718 5717 5718 5719 5719 5719 5719 5719 5718 5716 5716 5714 5714 5711 5709 5707 5704 5701 5696 5691 5686 5681 5676 5670 5664 5659 5653 5646
5694 5696 5699 5701 5703 5704 5704 5705 5706 5706 5707 5708 5710 5710 5711 5712 5712 5712 5711 5711 5711 5711 5711 5710 5710 5709 5708 5707 5705 5702 5699 5695 5692 5688 5684 5679 5674 5669 5663 5657 5651 5645 5640 5631
5689 5692 5694 5696 5697 5697 5698 5702 5702 5702 5703 5704 5702 5705 5704 5705 5705 5705 5704 5704 5704 5704 5703 5703 5702 5700 5699 5697 5695 5691 5688 5685 5681 5676 5671 5666 5661 5656 5650 5644 5638 5632 5624 5616
5682 5685 5688 5690 5690 5691 5696 5697 5698 5697 5696 5695 5695 5696 5696 5696 5697 5697 5697 5696 5696 5695 5695 5695 5694 5693 5691 5688 5685 5681 5677 5673 5669 5664 5658 5653 5648 5642 5636 5629 5623 5615 5609 5603
5676 5680 5680 5681 5684 5686 5689 5692 5691 5689 5691 5690 5688 5687 5687 5687 5688 5688 5688 5688 5688 5688 5688 5687 5685 5684 5681 5678 5675 5671 5666 5662 5657 5651 5646 5641 5635 5629 5622 5616 5609 5603 5597 5591
5670 5672 5674 5676 5676 5678 5683 5684 5683 5682 5683 5682 5679 5679 5678 5679 5680 5680 5680 5681 5681 5681 5680 5679 5677 5674 5671 5668 5663 5659 5655 5650 5645 5639 5634 5628 5622 5615 5609 5603 5596 5589 5582 5574
5662 5665 5666 5670 5670 5672 5676 5676 5676 5675 5680 5672 5671 5671 5671 5672 5673 5673 5674 5675 5674 5674 5672 5670 5667 5664 5660 5657 5653 5649 5643 5638 5633 5627 5621 5615 5609 5602 5595 5588 5581 5573 5565 5558
5656 5659 5661 5664 5664 5667 5670 5670 5669 5668 5666 5665 5664 5664 5665 5666 5667 5668 5669 5668 5668 5666 5663 5660 5658 5655 5651 5647 5641 5636 5631 5626 5620 5614 5608 5601 5594 5587 5580 5573 5565 5556 5549 5541
5650 5652 5655 5658 5660 5661 5662 5663 5661 5660 5659 5658 5658 5658 5660 5661 5661 5661 5661 5660 5658 5656 5654 5651 5648 5644 5639 5634 5629 5624 5618 5612 5606 5599 5593 5586 5579 5572 5564 5557 5549 5540 5531 5523
5643 5645 5646 5650 5653 5655 5655 5655 5654 5654 5653 5652 5652 5653 5654 5654 5654 5653 5653 5651 5649 5647 5644 5640 5636 5632 5627 5622 5616 5610 5603 5597 5590 5584 5578 5571 5564 5556 5548 5540 5532 5524 5514 5503
5637 5638 5640 5641 5646 5648 5647 5646 5647 5647 5647 5647 5648 5648 5648 5647 5647 5646 5644 5642 5640 5636 5632 5628 5623 5619 5613 5607 5601 5595 5588 5582 5576 5569 5563 5556 5548 5541 5532 5524 5515 5506 5494 5481
5629 5632 5634 5637 5639 5637 5640 5640 5640 5641 5642 5642 5641 5641 5641 5639 5638 5637 5634 5631 5627 5623 5619 5614 5609 5604 5599 5593 5587 5581 5574 5568 5561 5555 5547 5540 5532 5523 5515 5508 5501 5490 5479 5467